ASL66M LGSR-LYBE

Flight info

Callsign ASL66M
Flight time 1h 34m
Altitude 36000
Route NETIS UL607 KEA UL617 MAKED DCT RAXAD DCT GAZON
Aircraft A319/M-SDE3FGHIRWY/LB1

Departure

Time 2026-05-07 11:27
Airport Santorini International Airport (LGSR)

Arrival

Time 2026-05-07 13:02
Airport Belgrade Nikola Tesla Airport (LYBE)
Time Latitude Longitude Altitude Speed Heading
2026-05-07 11:11 36.40309 25.47405 116 ft 0 kts 249°
2026-05-07 11:20 36.40310 25.47408 116 ft 1 kts 250°
2026-05-07 11:21 36.40316 25.47429 113 ft 3 kts 263°
2026-05-07 11:21 36.40316 25.47453 114 ft 3 kts 293°
2026-05-07 11:21 36.40306 25.47470 112 ft 2 kts 337°
2026-05-07 11:21 36.40300 25.47473 112 ft 0 kts 339°
2026-05-07 11:24 36.40305 25.47470 116 ft 3 kts 339°
2026-05-07 11:24 36.40342 25.47453 116 ft 8 kts 340°
2026-05-07 11:24 36.40402 25.47432 117 ft 10 kts
2026-05-07 11:25 36.40456 25.47492 119 ft 12 kts 14°
2026-05-07 11:25 36.40548 25.47453 120 ft 16 kts 339°
2026-05-07 11:25 36.40664 25.47399 125 ft 19 kts 339°
2026-05-07 11:25 36.40757 25.47355 130 ft 11 kts 339°
2026-05-07 11:26 36.40829 25.47353 132 ft 10 kts 57°
2026-05-07 11:26 36.40835 25.47374 132 ft 0 kts 70°
2026-05-07 11:26 36.40839 25.47387 132 ft 5 kts 70°
2026-05-07 11:26 36.40858 25.47451 132 ft 7 kts 70°
2026-05-07 11:27 36.40819 25.47493 130 ft 14 kts 158°
2026-05-07 11:27 36.40464 25.47665 114 ft 101 kts 159°
2026-05-07 11:27 36.39565 25.48084 217 ft 164 kts 158°
2026-05-07 11:27 36.38511 25.48615 1149 ft 163 kts 154°
2026-05-07 11:28 36.37480 25.49293 1979 ft 176 kts 150°
2026-05-07 11:28 36.36375 25.50088 2524 ft 197 kts 149°
2026-05-07 11:28 36.35131 25.50990 3087 ft 218 kts 149°
2026-05-07 11:28 36.33790 25.51957 4026 ft 225 kts 150°
2026-05-07 11:29 36.32423 25.52937 5118 ft 229 kts 150°
2026-05-07 11:29 36.30904 25.53757 5868 ft 252 kts 170°
2026-05-07 11:29 36.29101 25.53534 6551 ft 274 kts 205°
2026-05-07 11:29 36.27636 25.52011 7497 ft 280 kts 239°
2026-05-07 11:30 36.27094 25.49721 8570 ft 281 kts 273°
2026-05-07 11:30 36.27651 25.47464 9672 ft 280 kts 306°
2026-05-07 11:30 36.28951 25.45649 10631 ft 288 kts 316°
2026-05-07 11:30 36.30460 25.43854 11088 ft 313 kts 318°
2026-05-07 11:31 36.32105 25.41984 11735 ft 326 kts 318°
2026-05-07 11:31 36.33797 25.40067 12607 ft 331 kts 318°
2026-05-07 11:31 36.35496 25.38111 13515 ft 335 kts 317°
2026-05-07 11:31 36.37188 25.36129 14401 ft 339 kts 316°
2026-05-07 11:32 36.40632 25.32024 15999 ft 346 kts 316°
2026-05-07 11:32 36.42370 25.29933 16790 ft 350 kts 315°
2026-05-07 11:32 36.44132 25.27815 17589 ft 353 kts 315°
2026-05-07 11:33 36.45908 25.25682 18375 ft 356 kts 315°
2026-05-07 11:33 36.47703 25.23527 19070 ft 360 kts 315°
2026-05-07 11:33 36.49491 25.21382 19760 ft 363 kts 315°
2026-05-07 11:33 36.51314 25.19195 20463 ft 366 kts 315°
2026-05-07 11:34 36.53163 25.16975 21178 ft 369 kts 315°
2026-05-07 11:34 36.55018 25.14749 21853 ft 372 kts 315°
2026-05-07 11:34 36.56888 25.12501 22525 ft 375 kts 315°
2026-05-07 11:34 36.58774 25.10236 23163 ft 378 kts 315°
2026-05-07 11:35 36.60654 25.07981 23786 ft 382 kts 315°
2026-05-07 11:35 36.62577 25.05671 24315 ft 384 kts 315°
2026-05-07 11:35 36.64505 25.03347 24845 ft 386 kts 314°
2026-05-07 11:35 36.66438 25.01010 25371 ft 389 kts 314°
2026-05-07 11:36 36.68385 24.98654 25908 ft 391 kts 315°
2026-05-07 11:36 36.70414 24.96372 26420 ft 394 kts 321°
2026-05-07 11:36 36.72710 24.94481 26927 ft 398 kts 326°
2026-05-07 11:36 36.75076 24.92669 27445 ft 399 kts 326°
2026-05-07 11:37 36.76644 24.91466 27777 ft 401 kts 326°
2026-05-07 11:37 36.79808 24.89030 28436 ft 404 kts 326°
2026-05-07 11:37 36.81401 24.87799 28763 ft 405 kts 326°
2026-05-07 11:37 36.83804 24.85938 29255 ft 407 kts 326°
2026-05-07 11:38 36.86220 24.84067 29723 ft 409 kts 326°
2026-05-07 11:38 36.89441 24.81575 30334 ft 412 kts 326°
2026-05-07 11:38 36.91092 24.80292 30589 ft 413 kts 326°
2026-05-07 11:38 36.93507 24.78409 30982 ft 415 kts 326°
2026-05-07 11:39 36.95965 24.76505 31383 ft 417 kts 326°
2026-05-07 11:39 36.98446 24.74594 31865 ft 416 kts 326°
2026-05-07 11:39 37.00899 24.72701 32445 ft 413 kts 326°
2026-05-07 11:39 37.03337 24.70815 33004 ft 410 kts 325°
2026-05-07 11:40 37.05758 24.68938 33572 ft 408 kts 325°
2026-05-07 11:40 37.08157 24.67074 34154 ft 405 kts 325°
2026-05-07 11:40 37.10551 24.65211 34681 ft 403 kts 325°
2026-05-07 11:40 37.12927 24.63362 35180 ft 401 kts 324°
2026-05-07 11:41 37.15292 24.61523 35660 ft 399 kts 324°
2026-05-07 11:41 37.17652 24.59691 36046 ft 398 kts 324°
2026-05-07 11:41 37.19998 24.57868 36139 ft 396 kts 324°
2026-05-07 11:42 37.24634 24.54257 36155 ft 393 kts 324°
2026-05-07 11:42 37.29275 24.50630 36147 ft 393 kts 324°
2026-05-07 11:43 37.33932 24.46996 36150 ft 393 kts 324°
2026-05-07 11:43 37.38555 24.43387 36144 ft 392 kts 324°
2026-05-07 11:44 37.43194 24.39741 36137 ft 392 kts 324°
2026-05-07 11:44 37.47799 24.36119 36133 ft 392 kts 324°
2026-05-07 11:45 37.52435 24.32473 36127 ft 392 kts 324°
2026-05-07 11:45 37.57270 24.29239 36120 ft 400 kts 335°
2026-05-07 11:46 37.62565 24.27056 36121 ft 401 kts 336°
2026-05-07 11:46 37.67865 24.24879 36118 ft 401 kts 336°
2026-05-07 11:47 37.73173 24.22689 36125 ft 401 kts 336°
2026-05-07 11:47 37.78463 24.20505 36129 ft 402 kts 336°
2026-05-07 11:48 37.83782 24.18302 36134 ft 403 kts 336°
2026-05-07 11:48 37.89143 24.16080 36135 ft 403 kts 336°
2026-05-07 11:49 37.94442 24.13878 36140 ft 404 kts 336°
2026-05-07 11:49 37.99804 24.11656 36138 ft 405 kts 336°
2026-05-07 11:50 38.05171 24.09418 36139 ft 406 kts 336°
2026-05-07 11:50 38.10558 24.07175 36131 ft 407 kts 336°
2026-05-07 11:51 38.15884 24.04887 36124 ft 406 kts 335°
2026-05-07 11:51 38.21158 24.02302 36115 ft 406 kts 333°
2026-05-07 11:52 38.26406 23.99624 36107 ft 407 kts 333°
2026-05-07 11:52 38.31694 23.96967 36090 ft 408 kts 334°
2026-05-07 11:53 38.36973 23.94361 36089 ft 409 kts 334°
2026-05-07 11:53 38.42311 23.91727 36091 ft 411 kts 334°
2026-05-07 11:54 38.47652 23.89082 36089 ft 411 kts 334°
2026-05-07 11:54 38.52967 23.86444 36089 ft 412 kts 334°
2026-05-07 11:55 38.58281 23.83798 36090 ft 413 kts 334°
2026-05-07 11:55 38.63690 23.81097 36091 ft 414 kts 334°
2026-05-07 11:56 38.69064 23.78406 36096 ft 415 kts 334°
2026-05-07 11:56 38.74453 23.75697 36096 ft 416 kts 334°
2026-05-07 11:57 38.79818 23.73002 36098 ft 417 kts 334°
2026-05-07 11:57 38.85226 23.70286 36096 ft 418 kts 335°
2026-05-07 11:58 38.90664 23.67559 36108 ft 419 kts 335°
2026-05-07 11:58 38.96113 23.64822 36099 ft 420 kts 335°
2026-05-07 11:59 39.01531 23.62085 36096 ft 421 kts 335°
2026-05-07 11:59 39.06987 23.59319 36089 ft 421 kts 335°
2026-05-07 12:00 39.12448 23.56555 36089 ft 422 kts 335°
2026-05-07 12:00 39.17893 23.53788 36081 ft 423 kts 335°
2026-05-07 12:01 39.23375 23.51009 36089 ft 423 kts 335°
2026-05-07 12:01 39.28872 23.48210 36090 ft 424 kts 335°
2026-05-07 12:02 39.34380 23.45397 36096 ft 424 kts 335°
2026-05-07 12:02 39.39846 23.42610 36101 ft 425 kts 335°
2026-05-07 12:03 39.45366 23.39782 36114 ft 426 kts 335°
2026-05-07 12:03 39.50885 23.36946 36119 ft 427 kts 335°
2026-05-07 12:04 39.56390 23.34120 36128 ft 428 kts 334°
2026-05-07 12:04 39.61935 23.31275 36125 ft 429 kts 335°
2026-05-07 12:05 39.67499 23.28418 36129 ft 429 kts 334°
2026-05-07 12:05 39.73053 23.25558 36141 ft 430 kts 334°
2026-05-07 12:06 39.78593 23.22690 36140 ft 431 kts 334°
2026-05-07 12:06 39.84169 23.19801 36143 ft 432 kts 334°
2026-05-07 12:07 39.89763 23.16895 36144 ft 432 kts 334°
2026-05-07 12:07 39.95348 23.13988 36143 ft 432 kts 334°
2026-05-07 12:08 40.00905 23.11095 36141 ft 432 kts 334°
2026-05-07 12:08 40.06494 23.08178 36136 ft 433 kts 334°
2026-05-07 12:09 40.12095 23.05258 36136 ft 433 kts 335°
2026-05-07 12:09 40.17695 23.02332 36135 ft 434 kts 334°
2026-05-07 12:10 40.23278 22.99396 36142 ft 435 kts 334°
2026-05-07 12:10 40.28901 22.96447 36146 ft 436 kts 334°
2026-05-07 12:11 40.34534 22.93495 36149 ft 436 kts 334°
2026-05-07 12:11 40.40181 22.90516 36152 ft 437 kts 334°
2026-05-07 12:12 40.45823 22.87539 36148 ft 438 kts 334°
2026-05-07 12:12 40.51479 22.84541 36152 ft 438 kts 334°
2026-05-07 12:13 40.57118 22.81546 36151 ft 439 kts 334°
2026-05-07 12:13 40.62787 22.78532 36146 ft 440 kts 334°
2026-05-07 12:14 40.68469 22.75504 36143 ft 440 kts 334°
2026-05-07 12:14 40.74120 22.72493 36154 ft 441 kts 334°
2026-05-07 12:15 40.79829 22.69453 36150 ft 442 kts 334°
2026-05-07 12:15 40.85543 22.66408 36158 ft 442 kts 334°
2026-05-07 12:16 40.91220 22.63368 36152 ft 442 kts 334°
2026-05-07 12:16 40.96930 22.60290 36141 ft 442 kts 334°
2026-05-07 12:17 41.02615 22.57228 36150 ft 443 kts 334°
2026-05-07 12:17 41.08345 22.54140 36135 ft 443 kts 334°
2026-05-07 12:18 41.14179 22.51411 36137 ft 448 kts 344°
2026-05-07 12:18 41.20315 22.49984 36146 ft 450 kts 347°
2026-05-07 12:19 41.26505 22.48565 36146 ft 450 kts 346°
2026-05-07 12:19 41.32684 22.47144 36147 ft 451 kts 346°
2026-05-07 12:20 41.38848 22.45735 36147 ft 451 kts 346°
2026-05-07 12:20 41.45048 22.44310 36147 ft 451 kts 346°
2026-05-07 12:21 41.51200 22.42899 36148 ft 450 kts 346°
2026-05-07 12:21 41.57388 22.41474 36145 ft 451 kts 346°
2026-05-07 12:22 41.63569 22.40034 36141 ft 450 kts 346°
2026-05-07 12:22 41.69723 22.38606 36144 ft 452 kts 346°
2026-05-07 12:23 41.75930 22.37168 36147 ft 452 kts 346°
2026-05-07 12:23 41.82131 22.35730 36143 ft 451 kts 346°
2026-05-07 12:24 41.88321 22.34277 36138 ft 452 kts 346°
2026-05-07 12:24 41.94485 22.32828 36138 ft 452 kts 346°
2026-05-07 12:25 41.99662 22.31619 36137 ft 452 kts 346°
2026-05-07 12:25 42.06873 22.29950 36126 ft 452 kts 346°
2026-05-07 12:26 42.12033 22.28732 36121 ft 452 kts 346°
2026-05-07 12:26 42.18227 22.27262 36129 ft 452 kts 346°
2026-05-07 12:27 42.24440 22.25796 36118 ft 452 kts 346°
2026-05-07 12:27 42.30589 22.24037 36118 ft 448 kts 338°
2026-05-07 12:28 42.36160 22.20525 36121 ft 443 kts 328°
2026-05-07 12:28 42.41629 22.16637 36117 ft 443 kts 328°
2026-05-07 12:29 42.47105 22.12759 36108 ft 443 kts 328°
2026-05-07 12:29 42.52550 22.08893 36108 ft 444 kts 328°
2026-05-07 12:30 42.58037 22.04987 36100 ft 444 kts 328°
2026-05-07 12:30 42.63476 22.01110 36102 ft 444 kts 328°
2026-05-07 12:31 42.68946 21.97190 36098 ft 444 kts 328°
2026-05-07 12:31 42.74418 21.93262 36097 ft 445 kts 328°
2026-05-07 12:32 42.79886 21.89339 36092 ft 444 kts 328°
2026-05-07 12:32 42.85353 21.85407 36094 ft 445 kts 328°
2026-05-07 12:33 42.93545 21.79495 36090 ft 445 kts 328°
2026-05-07 12:33 42.99015 21.75536 36089 ft 445 kts 328°
2026-05-07 12:34 43.04482 21.71571 36090 ft 445 kts 328°
2026-05-07 12:34 43.09951 21.67604 36091 ft 445 kts 328°
2026-05-07 12:35 43.15425 21.63627 36082 ft 445 kts 328°
2026-05-07 12:35 43.20893 21.59647 36086 ft 445 kts 328°
2026-05-07 12:36 43.26369 21.55635 36084 ft 447 kts 328°
2026-05-07 12:36 43.31815 21.51629 36086 ft 447 kts 328°
2026-05-07 12:37 43.37309 21.47600 36078 ft 448 kts 328°
2026-05-07 12:37 43.42802 21.43575 36071 ft 448 kts 328°
2026-05-07 12:38 43.48296 21.39531 36062 ft 448 kts 328°
2026-05-07 12:38 43.53791 21.35464 36060 ft 448 kts 327°
2026-05-07 12:39 43.59287 21.31391 36060 ft 448 kts 327°
2026-05-07 12:39 43.64787 21.27316 36058 ft 449 kts 327°
2026-05-07 12:40 43.70287 21.23238 36005 ft 450 kts 328°
2026-05-07 12:40 43.73054 21.21182 35459 ft 451 kts 327°
2026-05-07 12:40 43.75828 21.19114 34905 ft 453 kts 327°
2026-05-07 12:41 43.78601 21.17041 34373 ft 455 kts 327°
2026-05-07 12:41 43.81393 21.14950 33805 ft 458 kts 327°
2026-05-07 12:41 43.84199 21.12848 33211 ft 458 kts 327°
2026-05-07 12:41 43.86993 21.10754 32624 ft 454 kts 327°
2026-05-07 12:42 43.89769 21.08677 32058 ft 451 kts 327°
2026-05-07 12:42 43.92518 21.06621 31501 ft 447 kts 327°
2026-05-07 12:42 43.95201 21.04615 30961 ft 443 kts 327°
2026-05-07 12:42 43.97899 21.02596 30420 ft 438 kts 327°
2026-05-07 12:43 44.00571 21.00593 29851 ft 434 kts 327°
2026-05-07 12:43 44.03213 20.98605 29242 ft 430 kts 327°
2026-05-07 12:43 44.05826 20.96634 28654 ft 426 kts 326°
2026-05-07 12:43 44.08415 20.94675 28057 ft 422 kts 326°
2026-05-07 12:44 44.10987 20.92727 27451 ft 419 kts 326°
2026-05-07 12:44 44.13534 20.90796 26838 ft 415 kts 326°
2026-05-07 12:44 44.16058 20.88896 26234 ft 412 kts 328°
2026-05-07 12:44 44.18686 20.87293 25647 ft 411 kts 333°
2026-05-07 12:45 44.21312 20.85771 25075 ft 408 kts 333°
2026-05-07 12:45 44.23925 20.84257 24510 ft 405 kts 333°
2026-05-07 12:45 44.26521 20.82754 23955 ft 403 kts 333°
2026-05-07 12:45 44.29101 20.81255 23367 ft 401 kts 333°
2026-05-07 12:46 44.31667 20.79757 22731 ft 399 kts 333°
2026-05-07 12:46 44.34211 20.78266 22095 ft 395 kts 333°
2026-05-07 12:46 44.36739 20.76780 21480 ft 393 kts 333°
2026-05-07 12:46 44.39243 20.75308 20879 ft 389 kts 333°
2026-05-07 12:47 44.41727 20.73848 20284 ft 385 kts 333°
2026-05-07 12:47 44.44183 20.72403 19694 ft 381 kts 333°
2026-05-07 12:47 44.46614 20.70970 19133 ft 377 kts 334°
2026-05-07 12:47 44.49018 20.69552 18568 ft 373 kts 334°
2026-05-07 12:48 44.51373 20.68082 17974 ft 368 kts 328°
2026-05-07 12:48 44.53487 20.66118 17348 ft 360 kts 317°
2026-05-07 12:48 44.55260 20.63681 16723 ft 354 kts 307°
2026-05-07 12:48 44.56671 20.60897 16115 ft 348 kts 298°
2026-05-07 12:49 44.57949 20.58040 15511 ft 345 kts 299°
2026-05-07 12:49 44.59222 20.55210 14939 ft 342 kts 299°
2026-05-07 12:49 44.60487 20.52398 14356 ft 340 kts 299°
2026-05-07 12:49 44.61745 20.49597 13791 ft 337 kts 299°
2026-05-07 12:50 44.62988 20.46825 13169 ft 335 kts 299°
2026-05-07 12:50 44.64222 20.44067 12565 ft 332 kts 299°
2026-05-07 12:50 44.65427 20.41364 11969 ft 329 kts 299°
2026-05-07 12:50 44.66636 20.38652 11414 ft 327 kts 299°
2026-05-07 12:51 44.67842 20.35944 10841 ft 326 kts 299°
2026-05-07 12:51 44.69038 20.33255 10290 ft 323 kts 299°
2026-05-07 12:51 44.70224 20.30580 9721 ft 319 kts 299°
2026-05-07 12:51 44.71379 20.27979 9112 ft 309 kts 300°
2026-05-07 12:52 44.72509 20.25442 8521 ft 302 kts 299°
2026-05-07 12:52 44.73609 20.22958 7939 ft 297 kts 299°
2026-05-07 12:52 44.74692 20.20508 7369 ft 292 kts 299°
2026-05-07 12:52 44.75755 20.18103 6799 ft 287 kts 300°
2026-05-07 12:53 44.76789 20.15762 6244 ft 283 kts 300°
2026-05-07 12:53 44.77824 20.13422 5694 ft 279 kts 300°
2026-05-07 12:53 44.78830 20.11142 5321 ft 269 kts 299°
2026-05-07 12:53 44.79805 20.08934 4950 ft 261 kts 300°
2026-05-07 12:54 44.80743 20.06807 4623 ft 252 kts 299°
2026-05-07 12:54 44.81658 20.04737 4317 ft 243 kts 299°
2026-05-07 12:54 44.82540 20.02737 4046 ft 234 kts 299°
2026-05-07 12:54 44.83387 20.00882 3916 ft 221 kts 305°
2026-05-07 12:55 44.84604 19.99663 3796 ft 216 kts 338°
2026-05-07 12:55 44.86041 19.99134 3669 ft 211 kts 345°
2026-05-07 12:55 44.87460 19.98709 3542 ft 205 kts 346°
2026-05-07 12:55 44.88860 19.98528 3413 ft 202 kts
2026-05-07 12:56 44.90148 19.99278 3290 ft 202 kts 38°
2026-05-07 12:56 44.90965 20.00824 3165 ft 200 kts 71°
2026-05-07 12:56 44.91111 20.02733 3070 ft 196 kts 101°
2026-05-07 12:56 44.90860 20.04621 2984 ft 196 kts 104°
2026-05-07 12:57 44.90603 20.06509 2999 ft 195 kts 104°
2026-05-07 12:57 44.90348 20.08392 3004 ft 196 kts 104°
2026-05-07 12:57 44.90103 20.10241 2958 ft 183 kts 104°
2026-05-07 12:57 44.89876 20.11981 2971 ft 179 kts 104°
2026-05-07 12:58 44.89493 20.13605 2849 ft 172 kts 125°
2026-05-07 12:58 44.88861 20.15031 2640 ft 170 kts 126°
2026-05-07 12:58 44.88251 20.16416 2426 ft 168 kts 126°
2026-05-07 12:58 44.87635 20.17814 2194 ft 168 kts 126°
2026-05-07 12:59 44.87056 20.19133 2003 ft 147 kts 128°
2026-05-07 12:59 44.86547 20.20291 1801 ft 132 kts 128°
2026-05-07 12:59 44.86081 20.21346 1643 ft 124 kts 129°
2026-05-07 12:59 44.85628 20.22369 1466 ft 122 kts 129°
2026-05-07 13:00 44.85186 20.23370 1319 ft 122 kts 128°
2026-05-07 13:00 44.84764 20.24320 1163 ft 119 kts 128°
2026-05-07 13:00 44.84333 20.25310 986 ft 117 kts 127°
2026-05-07 13:00 44.83907 20.26280 821 ft 116 kts 127°
2026-05-07 13:01 44.83479 20.27244 669 ft 116 kts 127°
2026-05-07 13:01 44.83055 20.28206 502 ft 115 kts 126°
2026-05-07 13:01 44.82638 20.29139 359 ft 113 kts 126°
2026-05-07 13:01 44.82243 20.30014 306 ft 92 kts 122°
2026-05-07 13:02 44.81994 20.30569 306 ft 43 kts 123°
2026-05-07 13:02 44.81859 20.30868 308 ft 38 kts 123°
2026-05-07 13:02 44.81718 20.31179 306 ft 31 kts 125°
2026-05-07 13:02 44.81525 20.31371 305 ft 36 kts 153°
2026-05-07 13:03 44.81400 20.31459 306 ft 14 kts 156°
2026-05-07 13:03 44.81323 20.31386 306 ft 18 kts 281°
2026-05-07 13:03 44.81394 20.31215 306 ft 23 kts 302°
2026-05-07 13:03 44.81484 20.31013 308 ft 26 kts 302°
2026-05-07 13:04 44.81577 20.30806 307 ft 22 kts 302°
2026-05-07 13:04 44.81665 20.30609 308 ft 26 kts 302°
2026-05-07 13:04 44.81766 20.30382 309 ft 28 kts 302°
2026-05-07 13:04 44.81865 20.30159 307 ft 24 kts 302°
2026-05-07 13:05 44.81959 20.29941 307 ft 24 kts 302°
2026-05-07 13:05 44.82028 20.29787 307 ft 19 kts 302°
2026-05-07 13:05 44.82096 20.29635 308 ft 13 kts 303°
2026-05-07 13:05 44.82101 20.29530 310 ft 11 kts 230°
2026-05-07 13:06 44.82033 20.29468 308 ft 12 kts 212°
2026-05-07 13:06 44.81964 20.29406 307 ft 9 kts 213°
2026-05-07 13:06 44.81956 20.29351 307 ft 8 kts 307°
2026-05-07 13:06 44.81972 20.29317 307 ft 2 kts 302°
2026-05-07 13:07 44.81974 20.29314 307 ft 0 kts 302°